When you browse on this site, cookies collect data to enhance your experience and personalize the content and advertising you see.
Visit our Privacy Policy to learn more. By continuing to use the site, you agree to this use of cookies and data.
  • In Hungary
  • List of Countries
  • For 7 days
  • Water Temperature
  • Satellite Maps
  • Weather Map
  • News
  • Weather Widgets
  • user-avatar
    Login

    Hourly Weather Realeza

    Today, 23 January, Wednesday

    Time Temperature Precipitation Wind Pressure Humidity
    00:00 +26°C° 0 mm 1 mps 720 mmHg 73%
    01:00 +25°C° 0 mm 1 mps 720 mmHg 73%
    02:00 +25°C° 0 mm 1 mps 720 mmHg 76%
    03:00 +25°C° 0 mm 1 mps 720 mmHg 77%
    04:00 +24°C° 0 mm 1 mps 721 mmHg 79%
    05:00 +24°C° 0 mm 1 mps 721 mmHg 80%
    06:00 +26°C° 0.3 mm 1 mps 721 mmHg 76%
    07:00 +29°C° 0.3 mm 1 mps 722 mmHg 72%
    08:00 +31°C° 0.3 mm 1 mps 722 mmHg 68%
    09:00 +34°C° 0.8 mm 1 mps 723 mmHg 58%
    10:00 +35°C° 0.8 mm 0 mps 723 mmHg 49%
    11:00 +37°C° 0.8 mm 0 mps 723 mmHg 40%
    12:00 +36°C° 0 mm 0 mps 722 mmHg 43%
    13:00 +35°C° 0 mm 0 mps 722 mmHg 46%
    14:00 +34°C° 0 mm 0 mps 721 mmHg 48%
    15:00 +34°C° 0 mm 1 mps 721 mmHg 53%
    16:00 +33°C° 0 mm 1 mps 720 mmHg 57%
    17:00 +32°C° 0 mm 1 mps 720 mmHg 61%
    18:00 +31°C° 0 mm 1 mps 720 mmHg 63%
    19:00 +30°C° 0 mm 1 mps 720 mmHg 66%
    20:00 +29°C° 0 mm 1 mps 720 mmHg 68%
    21:00 +29°C° 0 mm 2 mps 721 mmHg 69%
    22:00 +28°C° 0 mm 2 mps 721 mmHg 69%
    23:00 +28°C° 0 mm 2 mps 721 mmHg 70%

    Tomorrow, 24 January, Thursday

    Time Temperature Precipitation Wind Pressure Humidity
    00:00 +27°C° 0 mm 2 mps 720 mmHg 72%
    01:00 +26°C° 0 mm 2 mps 720 mmHg 74%
    02:00 +26°C° 0 mm 2 mps 720 mmHg 76%
    03:00 +25°C° 0 mm 2 mps 720 mmHg 78%
    04:00 +25°C° 0 mm 2 mps 720 mmHg 80%
    05:00 +25°C° 0 mm 2 mps 720 mmHg 82%
    06:00 +26°C° 0.3 mm 2 mps 721 mmHg 77%
    07:00 +28°C° 0.3 mm 2 mps 721 mmHg 73%
    08:00 +29°C° 0.3 mm 2 mps 722 mmHg 68%
    09:00 +32°C° 0 mm 1 mps 722 mmHg 59%
    10:00 +36°C° 0 mm 1 mps 722 mmHg 50%
    11:00 +40°C° 0 mm 1 mps 722 mmHg 40%
    12:00 +39°C° 0 mm 1 mps 721 mmHg 39%
    13:00 +39°C° 0 mm 1 mps 721 mmHg 38%
    14:00 +39°C° 0 mm 1 mps 720 mmHg 37%
    15:00 +37°C° 0 mm 1 mps 720 mmHg 42%
    16:00 +35°C° 0 mm 1 mps 719 mmHg 48%
    17:00 +34°C° 0 mm 1 mps 719 mmHg 53%
    18:00 +31°C° 0.9 mm 1 mps 719 mmHg 63%
    19:00 +29°C° 0.9 mm 1 mps 719 mmHg 73%
    20:00 +27°C° 0.9 mm 1 mps 719 mmHg 84%
    21:00 +26°C° 0.3 mm 2 mps 720 mmHg 86%
    22:00 +25°C° 0.3 mm 2 mps 720 mmHg 88%
    23:00 +25°C° 0.3 mm 3 mps 721 mmHg 91%

    Day after tomorrow, 25 January, Friday

    Time Temperature Precipitation Wind Pressure Humidity
    00:00 +25°C° 0.1 mm 3 mps 721 mmHg 90%
    01:00 +24°C° 0.1 mm 3 mps 720 mmHg 90%
    02:00 +24°C° 0.1 mm 3 mps 720 mmHg 90%
    03:00 +24°C° 0 mm 3 mps 720 mmHg 90%
    04:00 +22°C° 0 mm 3 mps 720 mmHg 89%
    05:00 +23°C° 0 mm 2 mps 720 mmHg 89%
    06:00 +25°C° 0 mm 3 mps 720 mmHg 81%
    07:00 +26°C° 0 mm 3 mps 721 mmHg 73%
    08:00 +28°C° 0 mm 3 mps 722 mmHg 65%
    09:00 +30°C° 0 mm 3 mps 722 mmHg 58%
    10:00 +32°C° 0 mm 2 mps 722 mmHg 51%
    11:00 +35°C° 0 mm 2 mps 722 mmHg 43%
    12:00 +36°C° 0 mm 2 mps 721 mmHg 41%
    13:00 +37°C° 0 mm 2 mps 720 mmHg 38%
    14:00 +38°C° 0 mm 2 mps 720 mmHg 35%
    15:00 +37°C° 0 mm 2 mps 719 mmHg 39%
    16:00 +35°C° 0 mm 1 mps 719 mmHg 43%
    17:00 +34°C° 0 mm 1 mps 718 mmHg 47%
    18:00 +32°C° 0 mm 1 mps 719 mmHg 53%
    19:00 +30°C° 0 mm 1 mps 719 mmHg 59%
    20:00 +25°C° 0 mm 0 mps 719 mmHg 65%
    21:00 +27°C° 0 mm 1 mps 719 mmHg 67%
    22:00 +26°C° 0 mm 1 mps 720 mmHg 68%
    23:00 +26°C° 0 mm 2 mps 720 mmHg 69%

    26 January, Saturday

    Time Temperature Precipitation Wind Pressure Humidity
    00:00 +26°C° 0 mm 2 mps 720 mmHg 69%
    01:00 +25°C° 0 mm 2 mps 719 mmHg 69%
    02:00 +25°C° 0 mm 3 mps 719 mmHg 69%
    03:00 +24°C° 0 mm 2 mps 719 mmHg 73%
    04:00 +23°C° 0 mm 2 mps 720 mmHg 77%
    05:00 +23°C° 0 mm 2 mps 720 mmHg 82%
    06:00 +24°C° 0 mm 2 mps 721 mmHg 74%
    07:00 +26°C° 0 mm 2 mps 721 mmHg 66%
    08:00 +27°C° 0 mm 3 mps 722 mmHg 58%
    09:00 +29°C° 0 mm 3 mps 722 mmHg 50%
    10:00 +31°C° 0 mm 3 mps 722 mmHg 43%
    11:00 +34°C° 0 mm 2 mps 722 mmHg 36%
    12:00 +35°C° 0 mm 2 mps 721 mmHg 33%
    13:00 +36°C° 0 mm 2 mps 721 mmHg 30%
    14:00 +37°C° 0 mm 2 mps 720 mmHg 27%
    15:00 +36°C° 0 mm 2 mps 720 mmHg 31%
    16:00 +36°C° 0 mm 2 mps 719 mmHg 34%
    17:00 +35°C° 0 mm 2 mps 719 mmHg 37%
    18:00 +31°C° 0 mm 2 mps 719 mmHg 42%
    19:00 +29°C° 0 mm 1 mps 719 mmHg 46%
    20:00 +26°C° 0 mm 1 mps 720 mmHg 50%
    21:00 +26°C° 0 mm 2 mps 720 mmHg 53%
    22:00 +25°C° 0 mm 2 mps 721 mmHg 56%
    23:00 +25°C° 0 mm 2 mps 721 mmHg 58%

    27 January, Sunday

    Time Temperature Precipitation Wind Pressure Humidity
    00:00 +24°C° 0 mm 2 mps 720 mmHg 63%
    01:00 +24°C° 0 mm 2 mps 720 mmHg 67%
    02:00 +24°C° 0 mm 2 mps 720 mmHg 72%
    03:00 +23°C° 0 mm 2 mps 720 mmHg 74%
    04:00 +23°C° 0 mm 2 mps 720 mmHg 76%
    05:00 +21°C° 0 mm 2 mps 720 mmHg 78%
    06:00 +24°C° 0 mm 3 mps 721 mmHg 71%
    07:00 +26°C° 0 mm 3 mps 721 mmHg 65%
    08:00 +27°C° 0 mm 3 mps 722 mmHg 59%
    09:00 +29°C° 0 mm 3 mps 722 mmHg 54%
    10:00 +31°C° 0 mm 3 mps 722 mmHg 49%
    11:00 +33°C° 0 mm 3 mps 722 mmHg 43%
    12:00 +34°C° 0 mm 3 mps 722 mmHg 42%
    13:00 +35°C° 0 mm 3 mps 721 mmHg 41%
    14:00 +35°C° 0 mm 2 mps 721 mmHg 40%
    15:00 +34°C° 0 mm 3 mps 720 mmHg 44%
    16:00 +33°C° 0 mm 3 mps 720 mmHg 48%
    17:00 +31°C° 0 mm 3 mps 720 mmHg 52%
    18:00 +29°C° 0 mm 2 mps 720 mmHg 59%
    19:00 +27°C° 0 mm 2 mps 721 mmHg 65%
    20:00 +25°C° 0 mm 2 mps 721 mmHg 72%
    21:00 +25°C° 0 mm 2 mps 721 mmHg 74%
    22:00 +24°C° 0 mm 2 mps 721 mmHg 76%
    23:00 +24°C° 0 mm 2 mps 721 mmHg 77%

    28 January, Monday

    Time Temperature Precipitation Wind Pressure Humidity
    00:00 +24°C° 0 mm 2 mps 721 mmHg 77%
    01:00 +23°C° 0 mm 2 mps 721 mmHg 77%
    02:00 +23°C° 0 mm 2 mps 720 mmHg 77%
    03:00 +23°C° 0 mm 2 mps 721 mmHg 76%
    04:00 +23°C° 0 mm 2 mps 721 mmHg 76%
    05:00 +23°C° 0 mm 2 mps 721 mmHg 75%
    06:00 +25°C° 0 mm 3 mps 722 mmHg 69%
    07:00 +27°C° 0 mm 4 mps 722 mmHg 63%
    08:00 +28°C° 0 mm 4 mps 723 mmHg 58%
    09:00 +30°C° 0 mm 4 mps 723 mmHg 53%
    10:00 +32°C° 0 mm 4 mps 723 mmHg 48%
    11:00 +34°C° 0 mm 4 mps 723 mmHg 43%
    12:00 +34°C° 0 mm 4 mps 722 mmHg 45%
    13:00 +33°C° 0 mm 3 mps 722 mmHg 47%
    14:00 +33°C° 0 mm 3 mps 721 mmHg 49%
    15:00 +31°C° 0.3 mm 3 mps 721 mmHg 55%
    16:00 +30°C° 0.3 mm 3 mps 721 mmHg 61%
    17:00 +29°C° 0.3 mm 3 mps 721 mmHg 67%
    18:00 +27°C° 0.4 mm 2 mps 721 mmHg 75%
    19:00 +26°C° 0.4 mm 2 mps 722 mmHg 82%
    20:00 +24°C° 0.4 mm 1 mps 722 mmHg 90%
    21:00 +24°C° 0 mm 1 mps 722 mmHg 90%
    22:00 +23°C° 0 mm 1 mps 722 mmHg 91%
    23:00 +23°C° 0 mm 1 mps 723 mmHg 92%
    Show more